Home   Weather   Hialeah   Past weeks

Flag for USA Past Weather in Hialeah, Florida, USA — Yesterday and Last 2 Weeks

Now
82 °F

Clear.


Feels Like: 89 °F
Forecast: 81 / 89 °F
Wind: 7 mph from East

Location: Opa Locka Airport

Current Time: Jun 26, 2017 at 1:09:32 am

Latest Report: Jun 25, 2017 at 11:53 pm


Visibility: 10 mi

Pressure: 30.11 "Hg

Humidity: 82%

Dew Point: 76 °F

Location of HialeahLocation

Past Weather in Hialeah — Graph

°F

Hialeah Temperature Yesterday

Maximum temperature yesterday: 91 °F (at 12:53 pm)
Minimum temperature yesterday: 81 °F (at 3:53 am)
Average temperature yesterday: 85 °F

High & Low Weather Summary for the Past Weeks

 TemperatureHumidityPressure
High91 °F (Jun 24, 2:53 pm)100% (Jun 15, 5:53 am)30.14 "Hg (Jun 15, 5:53 am)
Low74 °F (Jun 15, 8:53 pm)54% (Jun 25, 12:53 pm)29.91 "Hg (Jun 18, 3:53 am)
Average83 °F80%30.03 "Hg
* Reported Jun 10 11:53 pm — Jun 25 11:53 pm, Hialeah. Weather by CustomWeather, © 2017

Note: Actual official high and low records may vary slightly from our data, if they occured in-between our weather recording intervals... More about our weather records

Advertising

Hialeah Weather History for the Previous 24 Hours

Scroll right to see more
 ConditionsComfort  
Time TempWeatherWind HumidityBarometerVisibility
11:53 pm
Sun, Jun 25
82 °FClear.7 mph82%30.11 "Hg10 mi
10:53 pm83 °FClear.7 mph79%30.11 "Hg10 mi
9:53 pm82 °FClear.6 mph79%30.09 "Hg10 mi
8:53 pm83 °FClear.7 mph74%30.07 "Hg10 mi
7:53 pm85 °FSunny.9 mph68%30.06 "Hg10 mi
6:53 pm87 °FSunny.13 mph57%30.05 "Hg10 mi
5:53 pm89 °FSunny.12 mph59%30.06 "Hg10 mi
4:53 pm89 °FSunny.15 mph59%30.07 "Hg10 mi
3:53 pm90 °FPassing clouds.14 mph57%30.09 "Hg10 mi
2:53 pm91 °FPassing clouds.13 mph57%30.10 "Hg10 mi
1:53 pm90 °FSunny.10 mph57%30.12 "Hg10 mi
12:53 pm91 °FPassing clouds.12 mph54%30.13 "Hg10 mi
11:53 am90 °FScattered clouds.13 mph56%30.13 "Hg10 mi
10:53 am88 °FPassing clouds.10 mph61%30.13 "Hg10 mi
9:53 am87 °FSunny.13 mph63%30.12 "Hg10 mi
8:53 am86 °FSunny.10 mph67%30.11 "Hg10 mi
7:53 am84 °FSunny.7 mph74%30.11 "Hg10 mi
7:05 am81 °FPassing clouds.5 mph82%30.10 "Hg10 mi
6:53 am81 °FSunny.6 mph82%30.09 "Hg10 mi
5:53 am81 °FClear.6 mph82%30.09 "Hg10 mi
4:53 am82 °FPassing clouds.6 mph82%30.08 "Hg10 mi
3:53 am81 °FPassing clouds.7 mph85%30.08 "Hg10 mi
2:53 am82 °FClear.6 mph79%30.08 "Hg10 mi
1:53 am82 °FClear.9 mph82%30.09 "Hg10 mi
Weather by CustomWeather, © 2017

See weather overviewHow to use our weather pages